<?xml version="1.0" encoding="UTF-8" standalone="no" ?>
<gpx xmlns="http://www.topografix.com/GPX/1/1" xmlns:xsi="http://www.w3.org/2001/XMLSchema-instance" xsi:schemaLocation="http://www.topografix.com/GPX/1/1 http://www.topografix.com/GPX/1/1/gpx.xsd" version="1.1" creator="VisuGPX - https://www.visugpx.com">
  <metadata>
    <name>Ecrins 2021</name>
  </metadata>
  <wpt lat="44.8396" lon="6.47901">
    <ele>1191.4</ele>
    <name><![CDATA[Vallouise]]></name>
  </wpt>
  <wpt lat="44.83903" lon="6.47524">
    <ele>1196.1</ele>
    <name><![CDATA[Pont des Fontaines]]></name>
  </wpt>
  <wpt lat="44.83931" lon="6.45488">
    <ele>1245.7</ele>
    <name><![CDATA[Pont des Places]]></name>
  </wpt>
  <wpt lat="44.83632" lon="6.44255">
    <ele>1309.8</ele>
    <name><![CDATA[Eboulement]]></name>
  </wpt>
  <wpt lat="44.83869" lon="6.44564">
    <ele>1289.8</ele>
    <name><![CDATA[Les Grésourières]]></name>
  </wpt>
  <wpt lat="44.83597" lon="6.43037">
    <ele>1466.9</ele>
    <name><![CDATA[Béassac]]></name>
  </wpt>
  <wpt lat="44.83117" lon="6.40174">
    <ele>1622.1</ele>
    <name><![CDATA[Entre les Aygues]]></name>
  </wpt>
  <wpt lat="44.83049" lon="6.40124">
    <ele>1609.1</ele>
    <name><![CDATA[Passerelle sur le torrent des Bans]]></name>
  </wpt>
  <wpt lat="44.81358" lon="6.38864">
    <ele>1836.5</ele>
    <name><![CDATA[Panneau d'entrée dans le parc des Ecrins]]></name>
  </wpt>
  <wpt lat="44.80661" lon="6.37616">
    <ele>1939.8</ele>
    <name><![CDATA[Passerelle sur le ruisseau du Ravin du Blanc]]></name>
  </wpt>
  <wpt lat="44.8009" lon="6.36589">
    <ele>2016.2</ele>
    <name><![CDATA[Passerelle sur le ruisseau de Chanteloube]]></name>
  </wpt>
  <wpt lat="44.79287" lon="6.36504">
    <ele>2131</ele>
    <name><![CDATA[1er ressaut]]></name>
  </wpt>
  <wpt lat="44.79042" lon="6.36483">
    <ele>2165</ele>
    <name><![CDATA[2ème ressaut]]></name>
  </wpt>
  <wpt lat="44.78733" lon="6.36223">
    <ele>2279.1</ele>
    <name><![CDATA[Champ Rond]]></name>
  </wpt>
  <wpt lat="44.78227" lon="6.35819">
    <ele>2498.2</ele>
    <name><![CDATA[Torrent de la Saume]]></name>
  </wpt>
  <wpt lat="44.76133" lon="6.34075">
    <ele>2074.9</ele>
    <name><![CDATA[Cabanes de Rougnoux]]></name>
  </wpt>
  <wpt lat="44.7633" lon="6.33688">
    <ele>1969.9</ele>
    <name><![CDATA[Passerelle sur le torrent de Rougnoux]]></name>
  </wpt>
  <wpt lat="44.7672" lon="6.32888">
    <ele>1831.2</ele>
    <name><![CDATA[Bivouac du refuge du Pré de la Chaumette]]></name>
  </wpt>
  <wpt lat="44.7729" lon="6.31142">
    <ele>2512.9</ele>
    <name><![CDATA[Sous le Puy de la Chaumette]]></name>
  </wpt>
  <wpt lat="44.81151" lon="6.29603">
    <ele>1704.7</ele>
    <name><![CDATA[Passerelle sur le torrent de Vallonpierre]]></name>
  </wpt>
  <wpt lat="44.81485" lon="6.29576">
    <ele>1660.5</ele>
    <name><![CDATA[Torrent de Vallonpierre]]></name>
  </wpt>
  <wpt lat="44.82482" lon="6.29325">
    <ele>1569.6</ele>
    <name><![CDATA[Passerelle sur la Séveraisse]]></name>
  </wpt>
  <wpt lat="44.82779" lon="6.29194">
    <ele>1545.2</ele>
    <name><![CDATA[Passerelle sur le Torrent de Pis Baumette]]></name>
  </wpt>
  <wpt lat="44.83173" lon="6.28114">
    <ele>1439</ele>
    <name><![CDATA[Passerelle sur le Torrent du Gioberney]]></name>
  </wpt>
  <wpt lat="44.8266" lon="6.26079">
    <ele>1402.8</ele>
    <name><![CDATA[Rif du Sap]]></name>
  </wpt>
  <wpt lat="44.82438" lon="6.23313">
    <ele>1174.1</ele>
    <name><![CDATA[Pont du Hameau du Bourg]]></name>
  </wpt>
  <wpt lat="44.81982" lon="6.21913">
    <ele>1151.2</ele>
    <name><![CDATA[Passerelle du Casset]]></name>
  </wpt>
  <trk>
    <name><![CDATA[E4 - Le Monêtier - Vallouise]]></name>
    <trkseg>
      <trkpt lat="44.97384" lon="6.50865">
        <ele>1466</ele>
        <time>2020-10-27T09:16:19+01:00</time>
      </trkpt>
      <trkpt lat="44.97394" lon="6.50819">
        <ele>1468</ele>
        <time>2020-10-27T09:16:24+01:00</time>
      </trkpt>
      <trkpt lat="44.97329" lon="6.5077">
        <ele>1464</ele>
        <time>2020-10-27T09:16:29+01:00</time>
      </trkpt>
      <trkpt lat="44.9735" lon="6.50644">
        <ele>1467</ele>
        <time>2020-10-27T09:16:34+01:00</time>
      </trkpt>
      <trkpt lat="44.97314" lon="6.5059">
        <ele>1469</ele>
        <time>2020-10-27T09:16:39+01:00</time>
      </trkpt>
      <trkpt lat="44.97262" lon="6.50536">
        <ele>1472</ele>
        <time>2020-10-27T09:16:44+01:00</time>
      </trkpt>
      <trkpt lat="44.97232" lon="6.50446">
        <ele>1475</ele>
        <time>2020-10-27T09:16:49+01:00</time>
      </trkpt>
      <trkpt lat="44.972" lon="6.50356">
        <ele>1478</ele>
        <time>2020-10-27T09:16:54+01:00</time>
      </trkpt>
      <trkpt lat="44.97167" lon="6.50283">
        <ele>1483</ele>
        <time>2020-10-27T09:16:59+01:00</time>
      </trkpt>
      <trkpt lat="44.97158" lon="6.50244">
        <ele>1486</ele>
        <time>2020-10-27T09:17:04+01:00</time>
      </trkpt>
      <trkpt lat="44.97135" lon="6.50212">
        <ele>1488</ele>
        <time>2020-10-27T09:17:09+01:00</time>
      </trkpt>
      <trkpt lat="44.97121" lon="6.50139">
        <ele>1492</ele>
        <time>2020-10-27T09:17:14+01:00</time>
      </trkpt>
      <trkpt lat="44.97095" lon="6.5009">
        <ele>1496</ele>
        <time>2020-10-27T09:17:19+01:00</time>
      </trkpt>
      <trkpt lat="44.97088" lon="6.50049">
        <ele>1498</ele>
        <time>2020-10-27T09:17:24+01:00</time>
      </trkpt>
      <trkpt lat="44.97069" lon="6.50032">
        <ele>1501</ele>
        <time>2020-10-27T09:17:29+01:00</time>
      </trkpt>
      <trkpt lat="44.97057" lon="6.49933">
        <ele>1516</ele>
        <time>2020-10-27T09:17:34+01:00</time>
      </trkpt>
      <trkpt lat="44.97033" lon="6.49976">
        <ele>1518</ele>
        <time>2020-10-27T09:17:39+01:00</time>
      </trkpt>
      <trkpt lat="44.9701" lon="6.50101">
        <ele>1512</ele>
        <time>2020-10-27T09:17:44+01:00</time>
      </trkpt>
      <trkpt lat="44.96969" lon="6.50154">
        <ele>1517</ele>
        <time>2020-10-27T09:17:49+01:00</time>
      </trkpt>
      <trkpt lat="44.9696" lon="6.49935">
        <ele>1559</ele>
        <time>2020-10-27T09:17:54+01:00</time>
      </trkpt>
      <trkpt lat="44.96933" lon="6.49798">
        <ele>1580</ele>
        <time>2020-10-27T09:17:59+01:00</time>
      </trkpt>
      <trkpt lat="44.96878" lon="6.49785">
        <ele>1595</ele>
        <time>2020-10-27T09:18:04+01:00</time>
      </trkpt>
      <trkpt lat="44.96807" lon="6.49893">
        <ele>1607</ele>
        <time>2020-10-27T09:18:09+01:00</time>
      </trkpt>
      <trkpt lat="44.96784" lon="6.4986">
        <ele>1611</ele>
        <time>2020-10-27T09:18:14+01:00</time>
      </trkpt>
      <trkpt lat="44.96754" lon="6.49781">
        <ele>1622</ele>
        <time>2020-10-27T09:18:19+01:00</time>
      </trkpt>
      <trkpt lat="44.96711" lon="6.49757">
        <ele>1639</ele>
        <time>2020-10-27T09:18:24+01:00</time>
      </trkpt>
      <trkpt lat="44.96723" lon="6.49708">
        <ele>1641</ele>
        <time>2020-10-27T09:18:29+01:00</time>
      </trkpt>
      <trkpt lat="44.96793" lon="6.49656">
        <ele>1646</ele>
        <time>2020-10-27T09:18:34+01:00</time>
      </trkpt>
      <trkpt lat="44.96836" lon="6.49637">
        <ele>1643</ele>
        <time>2020-10-27T09:18:39+01:00</time>
      </trkpt>
      <trkpt lat="44.96834" lon="6.49577">
        <ele>1647</ele>
        <time>2020-10-27T09:18:44+01:00</time>
      </trkpt>
      <trkpt lat="44.96848" lon="6.49545">
        <ele>1641</ele>
        <time>2020-10-27T09:18:49+01:00</time>
      </trkpt>
      <trkpt lat="44.96831" lon="6.49487">
        <ele>1641</ele>
        <time>2020-10-27T09:18:54+01:00</time>
      </trkpt>
      <trkpt lat="44.96789" lon="6.49541">
        <ele>1659</ele>
        <time>2020-10-27T09:18:59+01:00</time>
      </trkpt>
      <trkpt lat="44.96693" lon="6.49569">
        <ele>1681</ele>
        <time>2020-10-27T09:19:04+01:00</time>
      </trkpt>
      <trkpt lat="44.96603" lon="6.49654">
        <ele>1699</ele>
        <time>2020-10-27T09:19:09+01:00</time>
      </trkpt>
      <trkpt lat="44.96594" lon="6.4962">
        <ele>1709</ele>
        <time>2020-10-27T09:19:14+01:00</time>
      </trkpt>
      <trkpt lat="44.96559" lon="6.49601">
        <ele>1724</ele>
        <time>2020-10-27T09:19:19+01:00</time>
      </trkpt>
      <trkpt lat="44.96543" lon="6.49573">
        <ele>1728</ele>
        <time>2020-10-27T09:19:24+01:00</time>
      </trkpt>
      <trkpt lat="44.96414" lon="6.49549">
        <ele>1773</ele>
        <time>2020-10-27T09:19:29+01:00</time>
      </trkpt>
      <trkpt lat="44.96347" lon="6.49526">
        <ele>1787</ele>
        <time>2020-10-27T09:19:34+01:00</time>
      </trkpt>
      <trkpt lat="44.96283" lon="6.49478">
        <ele>1794</ele>
        <time>2020-10-27T09:19:39+01:00</time>
      </trkpt>
      <trkpt lat="44.96235" lon="6.4945">
        <ele>1797</ele>
        <time>2020-10-27T09:19:44+01:00</time>
      </trkpt>
      <trkpt lat="44.96178" lon="6.4939">
        <ele>1793</ele>
        <time>2020-10-27T09:19:49+01:00</time>
      </trkpt>
      <trkpt lat="44.96102" lon="6.49378">
        <ele>1806</ele>
        <time>2020-10-27T09:19:54+01:00</time>
      </trkpt>
      <trkpt lat="44.96042" lon="6.49408">
        <ele>1832</ele>
        <time>2020-10-27T09:19:59+01:00</time>
      </trkpt>
      <trkpt lat="44.95897" lon="6.49444">
        <ele>1880</ele>
        <time>2020-10-27T09:20:04+01:00</time>
      </trkpt>
      <trkpt lat="44.95723" lon="6.49581">
        <ele>1957</ele>
        <time>2020-10-27T09:20:09+01:00</time>
      </trkpt>
      <trkpt lat="44.95688" lon="6.49584">
        <ele>1971</ele>
        <time>2020-10-27T09:20:14+01:00</time>
      </trkpt>
      <trkpt lat="44.9565" lon="6.49626">
        <ele>1980</ele>
        <time>2020-10-27T09:20:19+01:00</time>
      </trkpt>
      <trkpt lat="44.95626" lon="6.49611">
        <ele>1982</ele>
        <time>2020-10-27T09:20:24+01:00</time>
      </trkpt>
      <trkpt lat="44.95601" lon="6.49586">
        <ele>1983</ele>
        <time>2020-10-27T09:20:29+01:00</time>
      </trkpt>
      <trkpt lat="44.95557" lon="6.49596">
        <ele>1986</ele>
        <time>2020-10-27T09:20:34+01:00</time>
      </trkpt>
      <trkpt lat="44.9553" lon="6.49562">
        <ele>1991</ele>
        <time>2020-10-27T09:20:39+01:00</time>
      </trkpt>
      <trkpt lat="44.95501" lon="6.49534">
        <ele>2002</ele>
        <time>2020-10-27T09:20:44+01:00</time>
      </trkpt>
      <trkpt lat="44.95468" lon="6.49538">
        <ele>2017</ele>
        <time>2020-10-27T09:20:49+01:00</time>
      </trkpt>
      <trkpt lat="44.95366" lon="6.49601">
        <ele>2040</ele>
        <time>2020-10-27T09:20:54+01:00</time>
      </trkpt>
      <trkpt lat="44.95248" lon="6.49652">
        <ele>2058</ele>
        <time>2020-10-27T09:20:59+01:00</time>
      </trkpt>
      <trkpt lat="44.95135" lon="6.49706">
        <ele>2079</ele>
        <time>2020-10-27T09:21:04+01:00</time>
      </trkpt>
      <trkpt lat="44.95067" lon="6.49764">
        <ele>2090</ele>
        <time>2020-10-27T09:21:09+01:00</time>
      </trkpt>
      <trkpt lat="44.94973" lon="6.49813">
        <ele>2111</ele>
        <time>2020-10-27T09:21:14+01:00</time>
      </trkpt>
      <trkpt lat="44.94912" lon="6.49869">
        <ele>2128</ele>
        <time>2020-10-27T09:21:19+01:00</time>
      </trkpt>
      <trkpt lat="44.94924" lon="6.49895">
        <ele>2133</ele>
        <time>2020-10-27T09:21:24+01:00</time>
      </trkpt>
      <trkpt lat="44.9486" lon="6.50002">
        <ele>2159</ele>
        <time>2020-10-27T09:21:29+01:00</time>
      </trkpt>
      <trkpt lat="44.94926" lon="6.50036">
        <ele>2172</ele>
        <time>2020-10-27T09:21:34+01:00</time>
      </trkpt>
      <trkpt lat="44.94804" lon="6.50077">
        <ele>2181</ele>
        <time>2020-10-27T09:21:39+01:00</time>
      </trkpt>
      <trkpt lat="44.94771" lon="6.50141">
        <ele>2197</ele>
        <time>2020-10-27T09:21:44+01:00</time>
      </trkpt>
      <trkpt lat="44.94696" lon="6.50163">
        <ele>2213</ele>
        <time>2020-10-27T09:21:49+01:00</time>
      </trkpt>
      <trkpt lat="44.94661" lon="6.50154">
        <ele>2220</ele>
        <time>2020-10-27T09:21:54+01:00</time>
      </trkpt>
      <trkpt lat="44.9459" lon="6.50214">
        <ele>2234</ele>
        <time>2020-10-27T09:21:59+01:00</time>
      </trkpt>
      <trkpt lat="44.94484" lon="6.50182">
        <ele>2248</ele>
        <time>2020-10-27T09:22:04+01:00</time>
      </trkpt>
      <trkpt lat="44.94345" lon="6.50137">
        <ele>2273</ele>
        <time>2020-10-27T09:22:09+01:00</time>
      </trkpt>
      <trkpt lat="44.94145" lon="6.50199">
        <ele>2311</ele>
        <time>2020-10-27T09:22:14+01:00</time>
      </trkpt>
      <trkpt lat="44.94137" lon="6.50244">
        <ele>2316</ele>
        <time>2020-10-27T09:22:19+01:00</time>
      </trkpt>
      <trkpt lat="44.94198" lon="6.50337">
        <ele>2322</ele>
        <time>2020-10-27T09:22:24+01:00</time>
      </trkpt>
      <trkpt lat="44.9408" lon="6.5033">
        <ele>2340</ele>
        <time>2020-10-27T09:22:29+01:00</time>
      </trkpt>
      <trkpt lat="44.93993" lon="6.50279">
        <ele>2354</ele>
        <time>2020-10-27T09:22:34+01:00</time>
      </trkpt>
      <trkpt lat="44.93847" lon="6.50313">
        <ele>2382</ele>
        <time>2020-10-27T09:22:39+01:00</time>
      </trkpt>
      <trkpt lat="44.93767" lon="6.50371">
        <ele>2399</ele>
        <time>2020-10-27T09:22:44+01:00</time>
      </trkpt>
      <trkpt lat="44.93691" lon="6.50414">
        <ele>2404</ele>
        <time>2020-10-27T09:22:49+01:00</time>
      </trkpt>
      <trkpt lat="44.93516" lon="6.50382">
        <ele>2421</ele>
        <time>2020-10-27T09:22:54+01:00</time>
      </trkpt>
      <trkpt lat="44.93477" lon="6.50455">
        <ele>2429</ele>
        <time>2020-10-27T09:22:59+01:00</time>
      </trkpt>
      <trkpt lat="44.93366" lon="6.50568">
        <ele>2408</ele>
        <time>2020-10-27T09:23:04+01:00</time>
      </trkpt>
      <trkpt lat="44.93303" lon="6.50633">
        <ele>2398</ele>
        <time>2020-10-27T09:23:09+01:00</time>
      </trkpt>
      <trkpt lat="44.93311" lon="6.50652">
        <ele>2402</ele>
        <time>2020-10-27T09:23:14+01:00</time>
      </trkpt>
      <trkpt lat="44.93231" lon="6.50708">
        <ele>2395</ele>
        <time>2020-10-27T09:23:19+01:00</time>
      </trkpt>
      <trkpt lat="44.93196" lon="6.50732">
        <ele>2392</ele>
        <time>2020-10-27T09:23:24+01:00</time>
      </trkpt>
      <trkpt lat="44.93091" lon="6.50796">
        <ele>2388</ele>
        <time>2020-10-27T09:23:29+01:00</time>
      </trkpt>
      <trkpt lat="44.92975" lon="6.50813">
        <ele>2380</ele>
        <time>2020-10-27T09:23:34+01:00</time>
      </trkpt>
      <trkpt lat="44.92924" lon="6.50835">
        <ele>2382</ele>
        <time>2020-10-27T09:23:39+01:00</time>
      </trkpt>
      <trkpt lat="44.92747" lon="6.50822">
        <ele>2370</ele>
        <time>2020-10-27T09:23:44+01:00</time>
      </trkpt>
      <trkpt lat="44.92641" lon="6.50798">
        <ele>2364</ele>
        <time>2020-10-27T09:23:49+01:00</time>
      </trkpt>
      <trkpt lat="44.926" lon="6.50774">
        <ele>2360</ele>
        <time>2020-10-27T09:23:54+01:00</time>
      </trkpt>
      <trkpt lat="44.9258" lon="6.5086">
        <ele>2351</ele>
        <time>2020-10-27T09:23:59+01:00</time>
      </trkpt>
      <trkpt lat="44.92541" lon="6.50899">
        <ele>2350</ele>
        <time>2020-10-27T09:24:04+01:00</time>
      </trkpt>
      <trkpt lat="44.92486" lon="6.50867">
        <ele>2332</ele>
        <time>2020-10-27T09:24:09+01:00</time>
      </trkpt>
      <trkpt lat="44.92397" lon="6.50903">
        <ele>2316</ele>
        <time>2020-10-27T09:24:14+01:00</time>
      </trkpt>
      <trkpt lat="44.92295" lon="6.50873">
        <ele>2296</ele>
        <time>2020-10-27T09:24:19+01:00</time>
      </trkpt>
      <trkpt lat="44.92397" lon="6.50783">
        <ele>2281</ele>
        <time>2020-10-27T09:24:24+01:00</time>
      </trkpt>
      <trkpt lat="44.92307" lon="6.50762">
        <ele>2256</ele>
        <time>2020-10-27T09:24:29+01:00</time>
      </trkpt>
      <trkpt lat="44.92325" lon="6.50729">
        <ele>2246</ele>
        <time>2020-10-27T09:24:34+01:00</time>
      </trkpt>
      <trkpt lat="44.92299" lon="6.50701">
        <ele>2233</ele>
        <time>2020-10-27T09:24:39+01:00</time>
      </trkpt>
      <trkpt lat="44.92219" lon="6.50663">
        <ele>2222</ele>
        <time>2020-10-27T09:24:44+01:00</time>
      </trkpt>
      <trkpt lat="44.92194" lon="6.50607">
        <ele>2207</ele>
        <time>2020-10-27T09:24:49+01:00</time>
      </trkpt>
      <trkpt lat="44.92311" lon="6.50588">
        <ele>2187</ele>
        <time>2020-10-27T09:24:54+01:00</time>
      </trkpt>
      <trkpt lat="44.92267" lon="6.50523">
        <ele>2177</ele>
        <time>2020-10-27T09:24:59+01:00</time>
      </trkpt>
      <trkpt lat="44.92161" lon="6.50498">
        <ele>2165</ele>
        <time>2020-10-27T09:25:04+01:00</time>
      </trkpt>
      <trkpt lat="44.92216" lon="6.50459">
        <ele>2155</ele>
        <time>2020-10-27T09:25:09+01:00</time>
      </trkpt>
      <trkpt lat="44.9228" lon="6.50416">
        <ele>2141</ele>
        <time>2020-10-27T09:25:14+01:00</time>
      </trkpt>
      <trkpt lat="44.92313" lon="6.50414">
        <ele>2136</ele>
        <time>2020-10-27T09:25:19+01:00</time>
      </trkpt>
      <trkpt lat="44.92267" lon="6.50367">
        <ele>2122</ele>
        <time>2020-10-27T09:25:24+01:00</time>
      </trkpt>
      <trkpt lat="44.92178" lon="6.50345">
        <ele>2111</ele>
        <time>2020-10-27T09:25:29+01:00</time>
      </trkpt>
      <trkpt lat="44.92049" lon="6.50229">
        <ele>2081</ele>
        <time>2020-10-27T09:25:34+01:00</time>
      </trkpt>
      <trkpt lat="44.91968" lon="6.50202">
        <ele>2069</ele>
        <time>2020-10-27T09:25:39+01:00</time>
      </trkpt>
      <trkpt lat="44.9188" lon="6.50212">
        <ele>2054</ele>
        <time>2020-10-27T09:25:44+01:00</time>
      </trkpt>
      <trkpt lat="44.91731" lon="6.50266">
        <ele>2026</ele>
        <time>2020-10-27T09:25:49+01:00</time>
      </trkpt>
      <trkpt lat="44.91809" lon="6.50171">
        <ele>2013</ele>
        <time>2020-10-27T09:25:54+01:00</time>
      </trkpt>
      <trkpt lat="44.91755" lon="6.50182">
        <ele>2002</ele>
        <time>2020-10-27T09:25:59+01:00</time>
      </trkpt>
      <trkpt lat="44.91684" lon="6.50212">
        <ele>1991</ele>
        <time>2020-10-27T09:26:04+01:00</time>
      </trkpt>
      <trkpt lat="44.91792" lon="6.50071">
        <ele>1968</ele>
        <time>2020-10-27T09:26:09+01:00</time>
      </trkpt>
      <trkpt lat="44.91672" lon="6.50064">
        <ele>1924</ele>
        <time>2020-10-27T09:26:14+01:00</time>
      </trkpt>
      <trkpt lat="44.91509" lon="6.50051">
        <ele>1875</ele>
        <time>2020-10-27T09:26:19+01:00</time>
      </trkpt>
      <trkpt lat="44.91416" lon="6.50047">
        <ele>1859</ele>
        <time>2020-10-27T09:26:24+01:00</time>
      </trkpt>
      <trkpt lat="44.91272" lon="6.50045">
        <ele>1832</ele>
        <time>2020-10-27T09:26:29+01:00</time>
      </trkpt>
      <trkpt lat="44.91131" lon="6.49985">
        <ele>1793</ele>
        <time>2020-10-27T09:26:34+01:00</time>
      </trkpt>
      <trkpt lat="44.90971" lon="6.49888">
        <ele>1763</ele>
        <time>2020-10-27T09:26:39+01:00</time>
      </trkpt>
      <trkpt lat="44.9102" lon="6.49785">
        <ele>1757</ele>
        <time>2020-10-27T09:26:44+01:00</time>
      </trkpt>
      <trkpt lat="44.90971" lon="6.49742">
        <ele>1749</ele>
        <time>2020-10-27T09:26:49+01:00</time>
      </trkpt>
      <trkpt lat="44.90874" lon="6.49637">
        <ele>1740</ele>
        <time>2020-10-27T09:26:54+01:00</time>
      </trkpt>
      <trkpt lat="44.90824" lon="6.49614">
        <ele>1740</ele>
        <time>2020-10-27T09:26:59+01:00</time>
      </trkpt>
      <trkpt lat="44.90766" lon="6.4956">
        <ele>1740</ele>
        <time>2020-10-27T09:27:04+01:00</time>
      </trkpt>
      <trkpt lat="44.90632" lon="6.49528">
        <ele>1738</ele>
        <time>2020-10-27T09:27:09+01:00</time>
      </trkpt>
      <trkpt lat="44.9059" lon="6.49551">
        <ele>1738</ele>
        <time>2020-10-27T09:27:14+01:00</time>
      </trkpt>
      <trkpt lat="44.90439" lon="6.49523">
        <ele>1734</ele>
        <time>2020-10-27T09:27:19+01:00</time>
      </trkpt>
      <trkpt lat="44.90379" lon="6.4947">
        <ele>1723</ele>
        <time>2020-10-27T09:27:24+01:00</time>
      </trkpt>
      <trkpt lat="44.90277" lon="6.49405">
        <ele>1720</ele>
        <time>2020-10-27T09:27:29+01:00</time>
      </trkpt>
      <trkpt lat="44.90207" lon="6.49313">
        <ele>1720</ele>
        <time>2020-10-27T09:27:34+01:00</time>
      </trkpt>
      <trkpt lat="44.90123" lon="6.49292">
        <ele>1720</ele>
        <time>2020-10-27T09:27:39+01:00</time>
      </trkpt>
      <trkpt lat="44.89977" lon="6.49247">
        <ele>1720</ele>
        <time>2020-10-27T09:27:44+01:00</time>
      </trkpt>
      <trkpt lat="44.89927" lon="6.49217">
        <ele>1720</ele>
        <time>2020-10-27T09:27:49+01:00</time>
      </trkpt>
      <trkpt lat="44.8971" lon="6.49169">
        <ele>1703</ele>
        <time>2020-10-27T09:27:54+01:00</time>
      </trkpt>
      <trkpt lat="44.89634" lon="6.49161">
        <ele>1706</ele>
        <time>2020-10-27T09:27:59+01:00</time>
      </trkpt>
      <trkpt lat="44.89565" lon="6.49118">
        <ele>1703</ele>
        <time>2020-10-27T09:28:04+01:00</time>
      </trkpt>
      <trkpt lat="44.895" lon="6.49103">
        <ele>1704</ele>
        <time>2020-10-27T09:28:09+01:00</time>
      </trkpt>
      <trkpt lat="44.89459" lon="6.49105">
        <ele>1702</ele>
        <time>2020-10-27T09:28:14+01:00</time>
      </trkpt>
      <trkpt lat="44.89298" lon="6.49079">
        <ele>1700</ele>
        <time>2020-10-27T09:28:19+01:00</time>
      </trkpt>
      <trkpt lat="44.89257" lon="6.49038">
        <ele>1699</ele>
        <time>2020-10-27T09:28:24+01:00</time>
      </trkpt>
      <trkpt lat="44.89202" lon="6.49041">
        <ele>1687</ele>
        <time>2020-10-27T09:28:29+01:00</time>
      </trkpt>
      <trkpt lat="44.89141" lon="6.49073">
        <ele>1675</ele>
        <time>2020-10-27T09:28:34+01:00</time>
      </trkpt>
      <trkpt lat="44.89079" lon="6.4909">
        <ele>1665</ele>
        <time>2020-10-27T09:28:39+01:00</time>
      </trkpt>
      <trkpt lat="44.88883" lon="6.49062">
        <ele>1642</ele>
        <time>2020-10-27T09:28:44+01:00</time>
      </trkpt>
      <trkpt lat="44.88758" lon="6.49015">
        <ele>1622</ele>
        <time>2020-10-27T09:28:49+01:00</time>
      </trkpt>
      <trkpt lat="44.88597" lon="6.48972">
        <ele>1598</ele>
        <time>2020-10-27T09:28:54+01:00</time>
      </trkpt>
      <trkpt lat="44.88468" lon="6.48901">
        <ele>1583</ele>
        <time>2020-10-27T09:28:59+01:00</time>
      </trkpt>
      <trkpt lat="44.88374" lon="6.48858">
        <ele>1570</ele>
        <time>2020-10-27T09:29:04+01:00</time>
      </trkpt>
      <trkpt lat="44.88269" lon="6.48873">
        <ele>1559</ele>
        <time>2020-10-27T09:29:09+01:00</time>
      </trkpt>
      <trkpt lat="44.88161" lon="6.48854">
        <ele>1544</ele>
        <time>2020-10-27T09:29:14+01:00</time>
      </trkpt>
      <trkpt lat="44.8805" lon="6.4888">
        <ele>1540</ele>
        <time>2020-10-27T09:29:19+01:00</time>
      </trkpt>
      <trkpt lat="44.87954" lon="6.48918">
        <ele>1523</ele>
        <time>2020-10-27T09:29:24+01:00</time>
      </trkpt>
      <trkpt lat="44.87875" lon="6.49028">
        <ele>1514</ele>
        <time>2020-10-27T09:29:29+01:00</time>
      </trkpt>
      <trkpt lat="44.87838" lon="6.49101">
        <ele>1512</ele>
        <time>2020-10-27T09:29:34+01:00</time>
      </trkpt>
      <trkpt lat="44.87686" lon="6.49184">
        <ele>1475</ele>
        <time>2020-10-27T09:29:39+01:00</time>
      </trkpt>
      <trkpt lat="44.87641" lon="6.49225">
        <ele>1465</ele>
        <time>2020-10-27T09:29:44+01:00</time>
      </trkpt>
      <trkpt lat="44.87566" lon="6.49386">
        <ele>1462</ele>
        <time>2020-10-27T09:29:49+01:00</time>
      </trkpt>
      <trkpt lat="44.87476" lon="6.49335">
        <ele>1440</ele>
        <time>2020-10-27T09:29:54+01:00</time>
      </trkpt>
      <trkpt lat="44.87432" lon="6.49326">
        <ele>1429</ele>
        <time>2020-10-27T09:29:59+01:00</time>
      </trkpt>
      <trkpt lat="44.87352" lon="6.49418">
        <ele>1428</ele>
        <time>2020-10-27T09:30:04+01:00</time>
      </trkpt>
      <trkpt lat="44.87321" lon="6.49378">
        <ele>1415</ele>
        <time>2020-10-27T09:30:09+01:00</time>
      </trkpt>
      <trkpt lat="44.8725" lon="6.49352">
        <ele>1419</ele>
        <time>2020-10-27T09:30:14+01:00</time>
      </trkpt>
      <trkpt lat="44.87213" lon="6.49307">
        <ele>1412</ele>
        <time>2020-10-27T09:30:19+01:00</time>
      </trkpt>
      <trkpt lat="44.87128" lon="6.49326">
        <ele>1415</ele>
        <time>2020-10-27T09:30:24+01:00</time>
      </trkpt>
      <trkpt lat="44.87064" lon="6.49305">
        <ele>1407</ele>
        <time>2020-10-27T09:30:29+01:00</time>
      </trkpt>
      <trkpt lat="44.86978" lon="6.4932">
        <ele>1406</ele>
        <time>2020-10-27T09:30:34+01:00</time>
      </trkpt>
      <trkpt lat="44.8683" lon="6.49311">
        <ele>1393</ele>
        <time>2020-10-27T09:30:39+01:00</time>
      </trkpt>
      <trkpt lat="44.86722" lon="6.49438">
        <ele>1385</ele>
        <time>2020-10-27T09:30:44+01:00</time>
      </trkpt>
      <trkpt lat="44.86651" lon="6.49513">
        <ele>1383</ele>
        <time>2020-10-27T09:30:49+01:00</time>
      </trkpt>
      <trkpt lat="44.86642" lon="6.49485">
        <ele>1375</ele>
        <time>2020-10-27T09:30:54+01:00</time>
      </trkpt>
      <trkpt lat="44.86672" lon="6.4947">
        <ele>1377</ele>
        <time>2020-10-27T09:30:59+01:00</time>
      </trkpt>
      <trkpt lat="44.86736" lon="6.49365">
        <ele>1374</ele>
        <time>2020-10-27T09:31:04+01:00</time>
      </trkpt>
      <trkpt lat="44.86707" lon="6.4938">
        <ele>1366</ele>
        <time>2020-10-27T09:31:09+01:00</time>
      </trkpt>
      <trkpt lat="44.86616" lon="6.4945">
        <ele>1367</ele>
        <time>2020-10-27T09:31:14+01:00</time>
      </trkpt>
      <trkpt lat="44.86567" lon="6.49408">
        <ele>1357</ele>
        <time>2020-10-27T09:31:19+01:00</time>
      </trkpt>
      <trkpt lat="44.86505" lon="6.49363">
        <ele>1345</ele>
        <time>2020-10-27T09:31:24+01:00</time>
      </trkpt>
      <trkpt lat="44.86448" lon="6.49339">
        <ele>1333</ele>
        <time>2020-10-27T09:31:29+01:00</time>
      </trkpt>
      <trkpt lat="44.86407" lon="6.49322">
        <ele>1322</ele>
        <time>2020-10-27T09:31:34+01:00</time>
      </trkpt>
      <trkpt lat="44.86336" lon="6.49343">
        <ele>1315</ele>
        <time>2020-10-27T09:31:39+01:00</time>
      </trkpt>
      <trkpt lat="44.86199" lon="6.49328">
        <ele>1301</ele>
        <time>2020-10-27T09:31:44+01:00</time>
      </trkpt>
      <trkpt lat="44.86149" lon="6.4936">
        <ele>1299</ele>
        <time>2020-10-27T09:31:49+01:00</time>
      </trkpt>
      <trkpt lat="44.86096" lon="6.4935">
        <ele>1284</ele>
        <time>2020-10-27T09:31:54+01:00</time>
      </trkpt>
      <trkpt lat="44.86055" lon="6.49378">
        <ele>1284</ele>
        <time>2020-10-27T09:31:59+01:00</time>
      </trkpt>
      <trkpt lat="44.86026" lon="6.49337">
        <ele>1277</ele>
        <time>2020-10-27T09:32:04+01:00</time>
      </trkpt>
      <trkpt lat="44.8596" lon="6.49283">
        <ele>1272</ele>
        <time>2020-10-27T09:32:09+01:00</time>
      </trkpt>
      <trkpt lat="44.85931" lon="6.49159">
        <ele>1257</ele>
        <time>2020-10-27T09:32:14+01:00</time>
      </trkpt>
      <trkpt lat="44.8584" lon="6.49191">
        <ele>1252</ele>
        <time>2020-10-27T09:32:19+01:00</time>
      </trkpt>
      <trkpt lat="44.85699" lon="6.49197">
        <ele>1234</ele>
        <time>2020-10-27T09:32:24+01:00</time>
      </trkpt>
      <trkpt lat="44.85618" lon="6.49204">
        <ele>1230</ele>
        <time>2020-10-27T09:32:29+01:00</time>
      </trkpt>
      <trkpt lat="44.85531" lon="6.49255">
        <ele>1226</ele>
        <time>2020-10-27T09:32:34+01:00</time>
      </trkpt>
      <trkpt lat="44.85382" lon="6.4929">
        <ele>1214</ele>
        <time>2020-10-27T09:32:39+01:00</time>
      </trkpt>
      <trkpt lat="44.85244" lon="6.49191">
        <ele>1206</ele>
        <time>2020-10-27T09:32:44+01:00</time>
      </trkpt>
      <trkpt lat="44.85054" lon="6.49109">
        <ele>1193</ele>
        <time>2020-10-27T09:32:49+01:00</time>
      </trkpt>
      <trkpt lat="44.8486" lon="6.49032">
        <ele>1182</ele>
        <time>2020-10-27T09:32:54+01:00</time>
      </trkpt>
      <trkpt lat="44.84707" lon="6.4897">
        <ele>1167</ele>
        <time>2020-10-27T09:32:59+01:00</time>
      </trkpt>
      <trkpt lat="44.84597" lon="6.48948">
        <ele>1160</ele>
        <time>2020-10-27T09:33:04+01:00</time>
      </trkpt>
      <trkpt lat="44.84631" lon="6.48796">
        <ele>1165</ele>
        <time>2020-10-27T09:33:09+01:00</time>
      </trkpt>
      <trkpt lat="44.84584" lon="6.48807">
        <ele>1162</ele>
        <time>2020-10-27T09:33:14+01:00</time>
      </trkpt>
      <trkpt lat="44.8453" lon="6.48732">
        <ele>1165</ele>
        <time>2020-10-27T09:33:19+01:00</time>
      </trkpt>
      <trkpt lat="44.8448" lon="6.48639">
        <ele>1163</ele>
        <time>2020-10-27T09:33:24+01:00</time>
      </trkpt>
      <trkpt lat="44.84445" lon="6.48637">
        <ele>1160</ele>
        <time>2020-10-27T09:33:29+01:00</time>
      </trkpt>
      <trkpt lat="44.84421" lon="6.48577">
        <ele>1160</ele>
        <time>2020-10-27T09:33:34+01:00</time>
      </trkpt>
      <trkpt lat="44.84351" lon="6.48496">
        <ele>1162</ele>
        <time>2020-10-27T09:33:39+01:00</time>
      </trkpt>
      <trkpt lat="44.84375" lon="6.48468">
        <ele>1164</ele>
        <time>2020-10-27T09:33:44+01:00</time>
      </trkpt>
      <trkpt lat="44.84375" lon="6.48468">
        <ele>1164</ele>
        <time>2020-10-27T09:33:49+01:00</time>
      </trkpt>
      <trkpt lat="44.84375" lon="6.4847">
        <ele>1164</ele>
        <time>2020-10-27T09:33:54+01:00</time>
      </trkpt>
    </trkseg>
  </trk>
</gpx>